Location: Aressy
(43.2833°N, 0.3167°W)
Time: 21:56:15
(UTC+00:00)

Cosmos 2266 Rocket - Pass Details

Date: 28 January 2021
Orbit: 934 x 1008 km, 82.9° (Epoch: 02 March)

Event Time Altitude Azimuth Distance (km) Brightness Sun altitude
Rises 19:04:12 0° 176° (S) 3,678 7.0 -21.2°
Reaches altitude 10° 19:06:45 10° 173° (S) 2,724 6.3 -21.6°
Maximum altitude 19:12:54 64° 93° (E) 1,062 3.9 -22.7°
Drops below altitude 10° 19:18:58 10° 14° (NNE) 2,691 6.1 -23.9°
Sets 19:21:28 0° 11° (NNE) 3,631 6.9 -24.3°
